Probability
4 4 3 2 1 1 1 1 2 2 2 2 1 1 1 0 0 0 1 2 2 1 0 0 0 0 0 0 0 0 0 0 0 0 0 0 0 0 0 0 0 0 0
3 3 5 6 3 2 2 3 3 3 3 3 2 1 1 1 1 1 0 1 2 1 1 1 1 1 1 0 0 0 0 0 0 0 0 0 0 0 0 0 0 0 0
3 4 6 7 5 4 3 3 4 3 3 4 3 2 2 2 2 2 1 1 1 1 2 3 3 3 3 2 2 2 1 1 0 0 0 0 0 0 0 0 0 0 0
5 5 5 5 4 4 3 3 2 3 3 4 3 2 2 2 3 2 1 1 2 3 3 4 5 6 6 6 6 6 5 3 1 1 0 0 0 0 0 0 0 0 0
4 4 4 4 3 3 2 1 2 2 3 3 3 2 1 1 2 2 0 1 4 5 5 4 5 6 7 8 8 7 7 6 4 2 1 0 0 0 0 0 0 0 0
3 4 5 6 5 3 1 1 3 4 4 3 2 1 0 1 2 2 2 2 3 4 5 6 6 5 6 7 6 5 6 7 5 3 1 1 0 0 0 0 0 0 0
9 8 8 9 8 4 2 4 6 6 4 3 3 1 1 1 2 2 3 3 2 2 5 8 7 5 5 5 3 3 4 6 6 4 3 2 1 0 0 0 0 0 0
19 16 14 12 10 7 6 7 8 7 4 4 4 2 1 1 1 1 3 3 2 3 6 7 8 9 8 5 2 1 2 4 4 4 4 3 2 2 2 1 1 0 0
25 22 19 16 13 9 7 8 10 9 6 5 4 3 1 1 0 0 1 1 2 4 5 5 6 9 10 6 3 1 1 1 2 3 3 3 3 2 2 2 2 1 0
25 25 24 22 18 10 6 7 10 11 9 6 3 2 1 1 1 0 0 0 1 3 4 4 5 7 8 7 5 3 1 0 0 1 2 3 3 2 2 2 2 1 1
25 27 29 28 22 13 8 6 9 12 10 6 3 2 2 2 1 0 0 0 1 2 3 3 5 6 6 5 4 3 2 1 0 1 1 2 4 3 2 2 2 1 2
28 29 29 28 24 19 13 9 9 10 10 7 4 3 3 3 2 0 0 0 1 2 2 2 2 3 3 3 2 2 2 1 0 0 0 1 3 3 3 3 3 3 3
30 28 27 27 26 23 18 14 13 11 10 8 6 5 4 3 2 1 0 0 0 1 1 0 0 1 2 3 2 1 1 1 0 0 0 0 1 1 1 2 3 3 3
30 29 29 29 28 24 20 17 16 15 13 10 7 6 5 4 3 2 1 1 1 0 0 0 0 1 2 3 2 1 1 0 0 0 0 0 0 0 0 1 2 3 3
29 29 30 30 29 26 22 19 19 18 15 11 9 8 6 4 3 3 3 4 4 2 1 1 2 3 3 3 1 1 1 0 0 0 0 0 0 0 0 0 1 2 2
30 28 26 27 28 26 24 22 21 19 16 13 11 9 6 4 3 3 4 7 7 5 2 2 3 5 4 3 1 0 0 0 0 0 0 0 0 0 0 0 0 1 1
29 26 24 25 25 23 22 22 21 20 18 15 13 10 7 5 4 4 4 6 8 7 3 2 3 5 5 3 1 0 0 0 0 0 0 0 0 0 0 0 0 0 0
27 24 23 23 22 20 20 20 19 19 18 16 14 12 10 8 8 7 6 8 9 7 4 2 2 3 4 2 1 0 0 0 0 0 0 0 0 0 0 0 0 0 0
25 23 22 21 19 18 18 18 18 17 15 14 14 14 13 12 11 11 11 11 11 9 5 3 2 2 2 1 1 0 0 0 0 0 0 0 0 0 0 0 0 0 0
25 24 22 20 18 15 15 17 17 15 13 11 12 13 13 12 12 12 13 14 13 11 8 5 2 1 0 0 0 0 0 0 0 0 0 0 0 0 0 0 0 0 0
25 24 22 21 18 15 14 15 16 13 11 11 10 11 11 10 9 9 11 12 13 12 9 6 2 0 0 0 0 0 0 0 0 0 0 0 0 0 0 0 0 0 0
25 23 21 20 19 15 13 12 13 12 11 10 10 10 9 8 6 6 6 7 9 8 6 4 2 0 0 0 0 0 0 0 0 0 0 0 0 0 0 0 0 0 0
21 20 18 18 17 14 11 9 10 11 10 10 10 9 9 8 6 5 4 3 3 3 3 2 1 0 0 0 0 0 0 0 0 0 0 0 1 1 0 0 0 0 0
17 17 16 15 14 12 10 8 8 9 10 10 10 9 9 8 6 4 3 2 2 1 1 0 0 0 0 0 0 0 0 0 0 0 1 1 1 1 1 0 0 0 0
15 15 13 12 12 10 8 6 7 9 10 10 9 9 9 7 5 3 2 2 2 1 1 1 0 0 0 0 0 0 0 0 0 1 2 2 2 1 1 0 0 0 0
14 13 11 10 10 9 7 4 6 8 10 10 9 8 7 6 4 2 2 2 1 1 2 2 1 0 0 0 0 0 0 0 0 1 2 3 3 2 1 0 0 0 0
Wind_Speed
2 2 1 0 1 2 2 1 1 1 1 1 1 1 1 2 3 5 6 11 11 9 9 8 8 8 7 7 7 6 6 6 6 6 6 6 6 6 6 6 6 6 6
2 2 1 0 0 1 1 1 1 1 0 0 1 1 0 0 2 5 6 7 10 10 9 9 8 8 8 8 8 8 7 7 7 7 7 7 7 7 7 7 7 7 6
2 1 1 1 0 0 1 1 0 1 1 1 1 2 1 1 1 3 5 5 6 9 10 9 9 8 8 9 9 9 8 7 6 7 7 7 7 8 8 8 8 7 7
2 1 1 1 1 1 1 1 1 1 1 1 1 2 1 2 2 2 3 5 5 6 9 11 10 9 8 8 9 9 8 7 7 6 6 7 7 7 8 9 9 8 8
3 2 1 0 1 1 1 2 1 1 1 2 2 2 2 2 2 3 3 4 4 5 6 9 11 9 9 8 8 8 8 8 8 8 8 7 6 7 7 7 8 8 8
3 2 1 1 2 1 1 1 1 1 2 2 3 2 2 2 2 2 3 3 3 4 5 6 6 7 9 7 7 7 8 7 7 8 9 8 8 7 6 7 7 8 8
3 2 1 2 2 1 1 2 1 2 3 2 1 1 2 2 3 2 2 1 1 2 3 4 4 4 4 7 6 6 7 7 7 7 8 8 8 7 6 6 6 6 7
4 4 3 2 2 2 1 2 2 2 2 1 1 1 1 1 1 2 2 2 1 1 2 4 4 3 3 3 3 6 6 6 6 7 6 6 7 6 7 7 7 7 7
4 3 3 3 2 2 2 2 2 3 3 2 1 1 1 1 1 1 0 1 1 1 1 2 3 3 3 2 2 4 6 5 6 6 5 5 5 5 5 6 6 6 7
3 3 3 3 3 2 1 3 3 2 2 2 2 2 2 1 1 1 1 0 1 1 1 1 2 2 3 2 3 4 4 4 4 4 4 4 3 3 4 6 6 7 6
3 3 3 3 3 2 2 2 1 2 2 2 2 2 2 2 2 1 1 0 1 1 1 1 2 2 3 2 2 3 5 4 3 2 2 1 1 1 2 3 4 5 5
2 3 3 3 3 2 2 2 2 2 2 3 2 2 2 1 1 2 2 1 1 0 1 1 2 2 2 3 4 5 6 5 4 3 3 3 2 2 1 2 2 3 3
2 3 3 3 3 3 2 2 2 2 2 2 2 2 2 2 1 1 1 1 1 0 1 2 2 2 3 3 4 7 7 7 6 5 5 5 5 4 4 4 4 4 4
1 2 3 2 2 2 2 2 1 1 1 1 2 1 1 1 1 0 1 1 1 0 1 1 2 2 3 3 4 6 5 8 7 7 6 6 6 6 6 6 6 6 6
1 1 2 2 2 2 1 1 1 0 0 0 1 0 1 1 1 0 0 1 2 1 0 1 1 1 2 4 4 4 5 8 8 7 7 7 7 7 7 7 7 7 7
1 1 1 1 1 1 1 1 1 0 1 1 0 1 1 1 1 1 0 0 1 2 1 1 1 2 2 3 5 5 5 9 9 9 8 8 8 8 8 8 9 9 9
1 1 1 0 1 1 1 1 1 1 1 1 0 1 1 1 1 1 1 1 1 2 2 1 2 2 3 4 4 3 4 4 5 9 10 9 9 10 10 10 10 11 11
1 1 1 1 1 1 1 1 1 1 1 1 1 1 1 1 1 1 1 1 1 2 3 3 2 2 3 3 3 3 4 4 5 8 10 11 11 11 11 11 11 11 11
1 2 2 1 1 1 1 1 1 1 1 1 1 1 2 2 1 1 1 1 1 2 3 4 3 2 2 2 2 4 5 3 5 7 9 10 11 12 12 11 11 11 11
2 2 2 2 2 2 2 2 2 1 2 2 2 2 3 2 1 0 1 1 2 2 3 3 3 2 2 2 2 3 3 2 3 5 6 7 9 11 11 11 11 10 10
3 3 3 3 3 2 3 3 2 2 3 3 3 3 4 5 6 3 3 2 2 2 3 3 3 2 2 2 1 1 2 2 2 3 3 3 4 4 5 7 8 9 9
4 4 4 4 4 4 7 6 4 3 3 3 3 2 3 4 5 6 7 6 5 3 3 3 3 3 2 1 1 1 2 2 2 1 2 2 3 3 3 3 6 7 7
5 5 5 5 6 7 8 7 6 3 3 3 3 2 3 5 5 4 6 8 7 7 5 3 4 3 2 1 1 1 1 2 1 1 2 2 2 3 2 4 7 6 5
4 4 5 5 5 6 8 8 6 5 5 5 5 5 5 5 5 5 5 6 6 5 4 3 3 3 3 1 0 1 2 2 2 2 2 1 2 2 3 3 6 6 5
5 5 4 5 5 5 8 7 5 4 5 5 6 6 5 5 7 6 4 5 5 4 5 6 4 4 4 3 2 2 1 2 2 1 1 0 1 1 2 2 3 6 5
5 5 5 5 5 5 7 8 6 3 4 4 5 6 8 7 7 6 4 4 4 3 3 4 3 2 3 3 3 2 1 1 1 1 1 0 1 1 1 1 2 3 3
Wind_Direction
108 106 110 128 162 152 162 185 171 154 179 266 293 9 23 58 110 123 140 161 161 165 171 176 180 181 184 188 192 195 198 202 197 197 201 206 209 207 205 205 206 203 201
107 110 124 265 148 124 114 181 174 163 198 274 317 314 281 151 118 129 143 163 171 173 177 183 187 192 195 196 197 200 204 209 208 209 213 216 217 217 219 219 221 219 214
128 143 169 208 184 174 161 199 255 207 216 210 220 241 228 189 147 137 148 159 173 184 185 187 192 196 202 205 205 208 208 208 210 214 220 223 224 224 224 227 229 228 225
173 196 203 192 187 226 194 199 230 253 259 244 234 232 204 183 171 177 174 172 171 177 187 193 195 196 201 206 208 209 210 211 214 218 223 227 227 229 231 232 231 230 229
188 202 215 98 250 250 237 252 143 259 276 274 255 226 212 196 188 206 189 191 181 170 172 189 194 194 199 205 208 210 210 213 216 220 225 226 229 233 235 234 231 230 232
194 201 196 180 258 255 267 298 309 283 275 270 272 270 250 201 188 205 207 204 179 179 177 176 181 195 198 203 208 212 215 216 215 219 224 225 228 232 233 233 234 232 233
194 208 224 178 234 249 261 273 255 257 251 252 277 288 271 225 203 195 204 201 188 191 165 150 164 175 183 200 211 219 222 223 218 219 224 222 223 226 224 228 231 233 235
199 209 201 217 212 218 231 266 272 273 274 250 240 266 281 291 292 220 179 169 173 170 121 150 150 161 158 159 186 212 224 227 225 223 223 220 221 225 227 229 231 231 234
207 227 185 216 228 229 215 236 254 262 271 282 244 242 247 251 282 304 94 151 137 113 105 106 136 149 145 133 153 202 211 221 227 229 225 219 219 222 231 236 238 236 234
211 207 202 210 222 242 213 235 221 245 256 264 255 231 228 219 224 296 324 358 113 107 106 114 106 110 120 121 116 121 171 201 221 228 229 225 222 225 238 242 243 246 242
210 215 201 198 211 235 236 252 253 247 249 256 260 251 239 226 220 219 247 263 32 64 99 98 87 81 89 106 117 112 132 145 159 184 191 176 186 232 256 262 266 264 257
204 213 207 198 206 228 236 245 251 254 251 258 264 272 262 230 219 220 225 215 203 187 85 76 88 89 93 90 91 90 111 116 115 109 102 97 84 57 9 336 323 324 313
204 206 213 205 211 222 227 232 240 260 260 262 265 273 286 286 277 243 198 226 225 137 76 62 64 68 78 81 83 83 90 100 101 96 89 84 75 60 44 32 23 10 359
214 186 191 198 201 215 225 201 228 236 237 249 267 275 288 296 304 267 210 193 198 155 83 73 48 52 65 74 79 90 88 92 92 92 87 83 77 68 60 52 48 42 35
253 125 157 176 184 191 206 159 155 207 138 198 272 313 277 290 343 341 273 191 186 186 153 62 69 51 83 87 83 79 80 85 92 90 85 82 80 75 69 62 57 53 52
17 64 83 121 133 158 155 153 142 156 134 113 98 23 348 352 3 8 60 83 117 149 143 99 95 94 85 95 90 85 85 89 87 87 84 80 77 71 66 64 63 62 59
84 68 87 107 136 145 152 151 153 150 144 107 51 56 34 31 17 11 44 81 103 124 136 129 95 87 86 93 99 102 103 94 92 90 89 85 81 77 73 71 69 67 64
98 80 68 79 102 114 134 144 168 151 129 127 93 50 34 59 52 37 40 87 111 120 133 134 121 99 91 107 118 107 98 95 92 93 91 89 86 84 80 76 73 70 68
93 73 62 59 46 45 88 108 119 118 109 88 75 68 60 59 57 66 72 77 106 116 117 127 128 115 96 96 100 88 86 91 100 100 94 91 89 87 84 81 78 74 71
91 78 65 59 57 42 51 67 72 82 85 74 66 67 62 65 52 53 96 85 99 110 120 119 118 108 94 86 88 94 92 88 94 97 85 97 99 93 88 85 82 80 76
90 73 62 53 47 51 46 42 68 80 74 71 69 75 78 79 72 65 65 61 87 96 105 106 103 89 79 88 89 112 112 105 88 93 102 99 104 95 94 89 88 88 86
81 71 66 61 54 46 34 42 55 77 81 80 76 76 84 73 78 80 78 73 73 88 96 101 102 103 94 76 67 112 116 114 99 86 111 108 108 106 110 103 106 103 99
88 79 73 69 63 44 34 38 48 67 73 68 67 58 56 61 69 79 85 78 65 66 80 98 107 111 121 126 114 101 114 112 104 129 112 112 114 104 113 118 129 125 120
95 86 77 73 69 48 35 38 49 76 68 59 54 58 60 52 49 61 80 77 69 58 64 86 101 107 111 114 141 130 133 117 103 81 76 111 136 124 115 129 156 151 147
101 96 89 80 72 51 36 36 42 91 82 69 59 54 59 62 46 62 89 98 93 78 69 85 101 111 110 101 80 79 87 114 117 105 60 72 129 128 130 144 167 170 168
110 106 93 83 76 61 42 37 30 85 95 90 79 65 57 57 50 56 82 87 87 85 88 93 98 106 124 119 103 80 66 104 100 103 76 35 137 132 142 163 165 173 187